Pagina principale
METAR-TAF:

METAR-TAF

Aeroporti :

Meiringen, Svizzera

latitudine: 46-44-25N, longitudine: 8-06-36E, altezza: 577 m

Osservazione

Il bollettino è stato emesso 29 minuti fa, alle 17:20 UTC
Vento 9 kt da nord/nord-est, variando fra ovest/nord-ovest e est
Temperature 19°C
Umidità 43%
Pressione 1016 hPa
Visibilità 10 km o più
Poco nuvoloso ad un'altezza di 6400 ft

METAR: LSMM 311720Z AUTO 03009KT 300V080 9999NDV FEW064 19/06 Q1016 RMK

Ora: 19:49 (17:49 UTC)


TAF: mancante

Osservazioni e previsioni meteorologiche di più di 4000 aeroporti (messaggi METAR e TAF).

Le stazioni disponibili sono rappresentate dai dischi gialli e rossi sulla carta.

Puntare il mouse per vedere il nome della stazione.

Clicca sopra per visualizzare le osservazioni e previsioni meteorologiche.

Per cambiare la mappa : fare clic sui pulsanti verdi con una croce nera per ingrandire, il pulsante verde con un trattino per diminuire, o sulla freccia verde per le mappe adiacenti.


METAR-TAF: